sat.trackr.live / text

‹ back to catalog

STARLINK-35193

NORAD 65889 · 2025-224H

PAYLOAD ACTIVE UNKNOWN

§ Identity

Operator
Country
US
Launch date
2025-10-07
Launch site
AFETR
Launch vehicle
Mass (kg)
RCS (m²)

Purposes: comms

External: N2YO · Heavens-Above · Gunter

§ Orbital elements

Epoch: 2026-09-20T04:04:22.333152Z

Period
93.85 min
Inclination
53.1599°
Eccentricity
0.0001124
Mean motion
15.34377777 rev/d
Perigee alt
462.0 km
Apogee alt
463.5 km
Semi-major
6,840.9 km
B*
4.5074e-4
RAAN
187.0413°
Arg perigee
87.9724°
Mean anomaly
272.1408°
Rev number
5,464

§ Raw data

STARLINK-351931 65889U 25224H   26263.16970293  .00014872  00000+0  45074-3 0  99912 65889  53.1599 187.0413 0001124  87.9724 272.1408 15.34377777 54643

JSON: /api/v1/satellites/65889 · /tle

For live sub-satellite position, see the globe view (requires WebGL).

§ Visibility from observer

Set your observer location to see the next 7 days of passes ≥ 10°. The values pass through the URL so the page stays shareable.

No JS? Fill the form by hand. The geolocation button needs JavaScript.